Regional Weather Roundup
Issued by NWS

Home | Current Version | Previous Version | Text Only | Print | Product List | Glossary On
Versions: 1 2 3 4 5 6 7 8 9 10 11 12 13 14 15 16 17 18 19 20 21 22 23 24 25 26 27 28 29 30 31 32 33 34 35 36 37 38 39 40 41 42 43 44 45 46 47 48 49 50
393
ASUS46 KSTO 182215
RWRCA

NORTHERN AND CENTRAL CA REGIONAL WEATHER ROUNDUP
NATIONAL WEATHER SERVICE SACRAMENTO CA
200 PM PST MON NOV 18 2019

NOTE: FAIR INDICATES FEW OR NO CLOUDS BELOW 12,000 FEET WITH NO
SIGNIFICANT WEATHER AND/OR OBSTRUCTIONS TO VISIBILITY.

CAZ001-003-182300-
NORTHWEST AREA

CITY           SKY/WX    TMP DP  RH WIND       PRES   REMARKS
CRESCENT CITY  FOG       51  51 100 S7        29.98R VSB 1/4
UKIAH          SUNNY     81  46  29 CALM      29.87F
$$

CAZ006-505>513-182300-
BAY AREA

CITY           SKY/WX    TMP DP  RH WIND       PRES   REMARKS
SANTA ROSA     MOSUNNY   79  47  32 S5        29.87F
SAN RAFAEL     N/A       MM  MM  MM MISG
NAPA           SUNNY     74  50  42 SW6       29.88F
CONCORD        SUNNY     76  47  35 N6        29.89F
OAKLAND CITY   N/A       69  MM  MM MISG
OAKLAND        MOSUNNY   72  51  47 NW9       29.89F
SAN FRAN CITY  N/A       71  MM  46 MISG
SAN FRAN ARPT  SUNNY     65  54  67 E5        29.88F
LIVERMORE      SUNNY     76  47  35 E9        29.88F
HAYWARD        SUNNY     71  49  45 W6        29.88F
REDWOOD CITY   N/A       71  MM  52 MISG
MOFFETT ARPT     N/A    N/A N/A N/A MISG      29.88F
SAN JOSE ARPT  MOSUNNY   73  46  38 NW7       29.88F
$$
CAZ034-037-514>518-182300-
CENTRAL COAST

CITY           SKY/WX    TMP DP  RH WIND       PRES   REMARKS
WATSONVILLE    SUNNY     77  41  27 W7        29.87F
SALINAS        SUNNY     72  47  40 NW15      29.85F
MONTEREY       SUNNY     67  48  50 N6        29.88F
SAN LUIS OBISP SUNNY     81  35  19 NW16      29.82F
SANTA MARIA    SUNNY     78  42  27 W10       29.84F
$$
CAZ015-016-182300-
NORTHERN SACRAMENTO VALLEY

CITY           SKY/WX    TMP DP  RH WIND       PRES   REMARKS
REDDING        SUNNY     77  45  32 S5        29.86F
RED BLUFF      SUNNY     76  43  30 CALM      29.88F
OROVILLE       SUNNY     73  49  42 CALM      29.89F
$$
CAZ016>018-182300-
SOUTHERN SACRAMENTO VALLEY

CITY           SKY/WX    TMP DP  RH WIND       PRES   REMARKS
AUBURN         SUNNY     73  41  31 CALM      29.93F
BEALE AFB      SUNNY     74  48  40 NW5       29.87F
LINCOLN        FAIR      73  45  35 CALM      29.89F
MARYSVILLE     SUNNY     75  48  38 CALM      29.89F
SAC INTL ARPT  MOSUNNY   74  50  42 N6        29.88F
MATHER AIRPORT MOSUNNY   73  48  40 NW5       29.88
DOWNTOWN SAC   N/A       74  MM  MM MISG
SAC EXEC ARPT  SUNNY     74  48  39 NW6       29.89F
VACAVILLE      SUNNY     76  48  37 MISG      29.90F
TRAVIS AFB     SUNNY     78  48  35 N5        29.89F
$$
CAZ019>021-182300-
SAN JOAQUIN VALLEY

CITY           SKY/WX    TMP DP  RH WIND       PRES   REMARKS
STOCKTON       SUNNY     75  50  41 NW6       29.88F
MODESTO        SUNNY     73  49  42 W3        29.89F
MERCED         SUNNY     73  49  42 CALM      29.88F
LEMOORE        SUNNY     76  46  34 VRB5      29.89F
FRESNO         SUNNY     75  47  36 NW3       29.89F
HANFORD        SUNNY     77  48  35 CALM      29.89F HAZE
PORTERVILLE    SUNNY     79  46  31 N7        29.88F
BAKERSFIELD    SUNNY     78  48  34 W7        29.86F
$$
CAZ011-012-071-182300-
NORTHERN MOUNTAINS

CITY           SKY/WX    TMP DP  RH WIND       PRES   REMARKS
YREKA          MOSUNNY   61  39  44 SW6       29.96F
MOUNT SHASTA   SUNNY     67  39  35 VRB3      29.95F
ALTURAS        SUNNY     65  35  33 SW7       29.99F
$$
CAZ011-012-071-182300-
SIERRA NEVADA MTNS

CITY           SKY/WX    TMP DP  RH WIND       PRES   REMARKS
BLUE CANYON    SUNNY     66  25  21 S7        30.09F
TRUCKEE        SUNNY     72  19  14 W13       30.08F
TAHOE VLY ARPT SUNNY     64  33  31 VRB3      30.09F
MAMMOTH LAKES  FAIR      71  11  10 E9        30.13F
$$




USA.gov is the U.S. government's official web portal to all federal, state and local government web resources and services.